EW1107 Weather Reports


Display with metric or nautical units.
time (UTC)temp
F
wind
direction
speed
MPH
gust
MPH
rain 1hr
in
rain 24hr
in
rain mn
in
humidity
%
barometer
mb
20260505211054 61 22 5.0 17.0 0.00 0.00 0.00 80 1004.8
20260505210555 61 24 4.0 12.0 0.00 0.00 0.00 79 1005.0
20260505210053 62 275 3.0 22.0 0.00 0.00 0.00 79 1005.1
20260505205554 62 5 11.0 22.0 0.00 0.00 0.00 79 1004.9
20260505205057 62 13 4.0 13.0 0.00 0.00 0.00 79 1005.1
20260505204553 62 296 7.0 22.0 0.00 0.00 0.00 78 1005.0
20260505204053 63 40 7.0 22.0 0.00 0.00 0.00 77 1004.8
20260505203556 63 331 4.0 13.0 0.00 0.00 0.00 77 1004.9
20260505203056 63 34 8.0 13.0 0.00 0.00 0.00 76 1004.9
20260505202553 64 13 7.0 13.0 0.00 0.00 0.00 76 1004.9
20260505202052 64 355 0.0 14.0 0.00 0.00 0.00 75 1004.9
20260505201553 64 9 3.0 14.0 0.00 0.00 0.00 75 1004.9
20260505201052 64 39 4.0 14.0 0.00 0.00 0.00 75 1004.9
20260505200552 64 28 3.0 23.0 0.00 0.00 0.00 74 1004.9
20260505200052 65 345 5.0 23.0 0.00 0.00 0.00 74 1004.9
20260505195550 65 21 10.0 21.0 0.00 0.00 0.00 73 1004.9
20260505195051 65 43 2.0 17.0 0.00 0.00 0.00 72 1004.9
20260505194557 66 360 5.0 18.0 0.00 0.00 0.00 72 1004.9
20260505194052 66 44 6.0 18.0 0.00 0.00 0.00 71 1004.8
20260505193551 66 38 4.0 11.0 0.00 0.00 0.00 71 1004.8
20260505193105 67 9 4.0 18.0 0.00 0.00 0.00 70 1004.8
20260505192552 67 36 8.0 23.0 0.00 0.00 0.00 70 1004.7
20260505192050 67 9 11.0 23.0 0.00 0.00 0.00 69 1004.8
20260505191555 68 10 2.0 16.0 0.00 0.00 0.00 68 1004.8
20260505191049 68 343 7.0 20.0 0.00 0.00 0.00 68 1004.8
20260505190549 68 22 8.0 20.0 0.00 0.00 0.00 67 1004.7
20260505190050 69 360 8.0 19.0 0.00 0.00 0.00 65 1004.6
20260505185550 69 38 4.0 21.0 0.00 0.00 0.00 64 1004.6
20260505185049 69 5 10.0 21.0 0.00 0.00 0.00 62 1004.5
20260505184555 70 360 7.0 21.0 0.00 0.00 0.00 60 1004.4
20260505184049 70 348 7.0 21.0 0.00 0.00 0.00 56 1004.3
20260505183647 70 9 4.0 16.0 0.00 0.00 0.00 51 1004.3
20260505180046 74 246 0.0 0.0 0.00 0.00 0.00 39 1004.0
20260505175546 74 246 0.0 0.0 0.00 0.00 0.00 38 1004.0
20260505175045 75 246 0.0 0.0 0.00 0.00 0.00 36 1004.0
20260505174545 75 246 0.0 0.0 0.00 0.00 0.00 36 1004.0
20260505174049 76 246 0.0 0.0 0.00 0.00 0.00 35 1004.0
20260505173545 76 246 0.0 0.0 0.00 0.00 0.00 34 1003.9
20260505173046 77 246 0.0 0.0 0.00 0.00 0.00 33 1003.9
20260505172544 77 246 0.0 7.0 0.00 0.00 0.00 32 1004.0
20260505172044 77 261 0.0 12.0 0.00 0.00 0.00 32 1004.0
20260505171548 77 246 2.0 12.0 0.00 0.00 0.00 31 1004.0
20260505171045 78 203 3.0 8.0 0.00 0.00 0.00 31 1004.1
20260505170543 78 250 2.0 17.0 0.00 0.00 0.00 31 1004.0
20260505170043 78 265 7.0 17.0 0.00 0.00 0.00 30 1004.1
20260505165542 78 235 6.0 23.0 0.00 0.00 0.00 30 1004.1
20260505165042 79 247 5.0 23.0 0.00 0.00 0.00 29 1004.1
20260505164544 79 254 8.0 20.0 0.00 0.00 0.00 28 1004.1
20260505164041 80 260 2.0 23.0 0.00 0.00 0.00 28 1004.1
20260505163542 80 247 8.0 24.0 0.00 0.00 0.00 27 1004.1
20260505163043 80 245 7.0 28.0 0.00 0.00 0.00 27 1004.1
20260505162541 80 257 13.0 28.0 0.00 0.00 0.00 26 1004.1
20260505162041 80 211 14.0 23.0 0.00 0.00 0.00 25 1004.1
20260505161544 81 216 9.0 25.0 0.00 0.00 0.00 24 1004.1
20260505161040 81 200 10.0 25.0 0.00 0.00 0.00 22 1004.1
20260505160539 81 217 8.0 29.0 0.00 0.00 0.00 22 1004.1
20260505160140 81 202 14.0 29.0 0.00 0.00 0.00 21 1004.1
20260505153045 81 237 18.0 28.0 0.00 0.00 0.00 21 1004.2
20260505152537 81 198 12.0 22.0 0.00 0.00 0.00 23 1004.2
20260505152037 81 173 9.0 28.0 0.00 0.00 0.00 24 1004.2
20260505151538 81 250 11.0 28.0 0.00 0.00 0.00 24 1004.2
20260505151039 81 171 11.0 26.0 0.00 0.00 0.00 24 1004.2
20260505150535 82 171 11.0 26.0 0.00 0.00 0.00 23 1004.2
20260505140531 82 225 16.0 28.0 0.00 0.00 0.00 25 1004.8
20260505125023 83 213 10.0 23.0 0.00 0.00 0.00 24 1005.2
20260505124522 82 173 5.0 17.0 0.00 0.00 0.00 25 1005.3
20260505124020 81 188 7.0 17.0 0.00 0.00 0.00 26 1005.4
20260505123520 81 169 6.0 24.0 0.00 0.00 0.00 26 1005.6
20260505123020 82 217 6.0 24.0 0.00 0.00 0.00 26 1005.7
20260505122518 82 209 11.0 24.0 0.00 0.00 0.00 25 1005.7
20260505122018 82 210 8.0 21.0 0.00 0.00 0.00 24 1005.8
20260505121517 81 280 7.0 21.0 0.00 0.00 0.00 25 1005.8
20260505121016 80 159 10.0 28.0 0.00 0.00 0.00 26 1006.0
20260505120514 81 215 11.0 28.0 0.00 0.00 0.00 26 1006.0
20260505120032 81 217 8.0 21.0 0.00 0.00 0.00 26 1006.0
20260505115513 81 142 6.0 20.0 0.00 0.00 0.00 26 1006.1
20260505114513 79 151 8.0 31.0 0.00 0.00 0.00 27 1006.1
20260505114012 79 186 16.0 32.0 0.00 0.00 0.00 27 1006.1
20260505113511 79 197 6.0 17.0 0.00 0.00 0.00 30 1006.1
20260505113013 80 147 1.0 17.0 0.00 0.00 0.00 33 1006.1
20260505112511 80 186 7.0 11.0 0.00 0.00 0.00 33 1006.1
20260505112009 80 175 4.0 12.0 0.00 0.00 0.00 34 1006.2
20260505111522 78 221 1.0 17.0 0.00 0.00 0.00 33 1006.3
20260505111008 78 250 11.0 21.0 0.00 0.00 0.00 33 1006.4
20260505110506 79 154 11.0 21.0 0.00 0.00 0.00 33 1006.5
20260505102103 77 213 5.0 11.0 0.00 0.00 0.00 36 1007.1
20260505101600 78 244 2.0 10.0 0.00 0.00 0.00 35 1007.1
20260505101102 79 311 4.0 10.0 0.00 0.00 0.00 35 1007.2
20260505100557 79 305 0.0 8.0 0.00 0.00 0.00 36 1007.3
20260505100058 78 117 1.0 11.0 0.00 0.00 0.00 36 1007.4
20260505095559 78 225 0.0 17.0 0.00 0.00 0.00 37 1007.5
20260505095057 78 270 7.0 17.0 0.00 0.00 0.00 36 1007.5
20260505094053 77 173 0.0 7.0 0.00 0.00 0.00 37 1007.6
20260505093552 76 229 2.0 9.0 0.00 0.00 0.00 37 1007.7
20260505093052 76 228 2.0 14.0 0.00 0.00 0.00 37 1007.8
20260505092551 77 218 1.0 14.0 0.00 0.00 0.00 39 1007.8
20260505092051 76 262 5.0 18.0 0.00 0.00 0.00 38 1007.8
20260505091615 77 221 4.0 10.0 0.00 0.00 0.00 37 1007.8
20260505091052 78 219 2.0 9.0 0.00 0.00 0.00 37 1007.9
20260505090548 77 264 0.0 0.0 0.00 0.00 0.00 36 1008.0
20260505090104 76 344 0.0 13.0 0.00 0.00 0.00 38 1008.0
20260505085548 76 312 3.0 15.0 0.00 0.00 0.00 38 1008.1
20260505085048 75 227 7.0 15.0 0.00 0.00 0.00 39 1008.2
20260505084601 75 233 5.0 14.0 0.00 0.00 0.00 39 1008.2
20260505084044 75 209 0.0 11.0 0.00 0.00 0.00 38 1008.3
20260505083546 77 232 2.0 14.0 0.00 0.00 0.00 36 1008.3
20260505083059 75 318 9.0 14.0 0.00 0.00 0.00 40 1008.3
20260505082542 75 276 0.0 13.0 0.00 0.00 0.00 39 1008.4
20260505082040 73 261 0.0 13.0 0.00 0.00 0.00 40 1008.5
20260505081554 74 184 2.0 13.0 0.00 0.00 0.00 40 1008.5
20260505081039 74 237 4.0 13.0 0.00 0.00 0.00 41 1008.5
20260505080537 73 277 1.0 11.0 0.00 0.00 0.00 41 1008.5
20260505080050 74 226 0.0 15.0 0.00 0.00 0.00 40 1008.5
20260505075533 73 188 5.0 15.0 0.00 0.00 0.00 40 1008.6
20260505075032 72 171 0.0 12.0 0.00 0.00 0.00 42 1008.5
20260505074531 71 259 4.0 12.0 0.00 0.00 0.00 42 1008.6
20260505073529 71 284 3.0 14.0 0.00 0.00 0.00 42 1008.6
20260505073039 71 233 5.0 14.0 0.00 0.00 0.00 42 1008.6
20260505072527 71 236 5.0 12.0 0.00 0.00 0.00 43 1008.7
20260505072025 70 157 4.0 15.0 0.00 0.00 0.00 42 1008.6
20260505071539 70 209 5.0 14.0 0.00 0.00 0.00 43 1008.7
20260505071023 70 258 0.0 12.0 0.00 0.00 0.00 44 1008.6
20260505070525 69 151 1.0 12.0 0.00 0.00 0.00 45 1008.6
20260505070023 69 221 0.0 1.0 0.00 0.00 0.00 45 1008.7
20260505065518 69 285 0.0 0.0 0.00 0.00 0.00 46 1008.7
20260505065018 69 234 0.0 9.0 0.00 0.00 0.00 46 1008.7
20260505064517 68 215 2.0 9.0 0.00 0.00 0.00 48 1008.7
20260505064019 68 203 0.0 8.0 0.00 0.00 0.00 48 1008.8
20260505063515 68 182 2.0 8.0 0.00 0.00 0.00 47 1008.8
20260505063014 68 203 0.0 0.0 0.00 0.00 0.00 47 1008.9
20260505062512 68 234 0.0 0.0 0.00 0.00 0.00 48 1009.0
20260505062011 67 248 0.0 0.0 0.00 0.00 0.00 48 1008.9
20260505061513 67 229 0.0 0.0 0.00 0.00 0.00 49 1008.9
20260505061008 67 281 0.0 1.0 0.00 0.00 0.00 49 1008.9
20260505060506 66 189 0.0 8.0 0.00 0.00 0.00 50 1008.9
20260505060005 66 192 1.0 8.0 0.00 0.00 0.00 51 1008.9
20260505055503 65 185 0.0 11.0 0.00 0.00 0.00 52 1008.9
20260505055002 65 198 4.0 11.0 0.00 0.00 0.00 52 1009.0
20260505054607 64 196 1.0 10.0 0.00 0.00 0.00 54 1009.0
20260505054059 64 195 4.0 10.0 0.00 0.00 0.00 54 1009.0
20260505053100 64 171 2.0 10.0 0.00 0.00 0.00 55 1009.0
20260505052557 63 165 5.0 10.0 0.00 0.00 0.00 56 1009.0
20260505052056 63 165 5.0 8.0 0.00 0.00 0.00 56 1009.0
20260505051555 63 184 0.0 0.0 0.00 0.00 0.00 57 1009.1
20260505051054 63 190 0.0 0.0 0.00 0.00 0.00 59 1009.1
20260505050553 62 192 0.0 0.0 0.00 0.00 0.00 62 1009.2